パンスターズ彗星

P/2017 FL36 ( PanSTARRS )

English version
Home page
Updated on May 2, 2025

---------------------------------------------------------------------

・ プロフィール

発見日 2017年3月18日
発見光度 21.5等
発見者 Pan-STARRS 1 telescope (Haleakala)

・ 軌道要素

                    Epoch = 2015 June 27.0 TT
     T = 2015 June 27.29651 TT        Peri. =  83.23829
     e = 0.0313729                    Node  = 313.66482 2000.0
     q = 2.8360097 AU                 Incl. =  15.68806
       a =  2.9278653 AU   n = 0.19673310   P =   5.01 years

・ 光度変化

        H = 16.5  G = 0.15

---------------------------------------------------------------------

軌道要素は、CBET 5551に掲載されたものです。
光度グラフはComet for Windowsで作成したものです。

---------------------------------------------------------------------

Copyright(C) Seiichi Yoshida (comet@aerith.net). All rights reserved.